Atlantic Bird 1

operational
NORAD ID: 27508 Int'l Des: 2002-040 Owner: EUTSA Country: F
HEOCIRCULAR

Atlantic Bird 1について

説明を読み込み中...

リアルタイム位置

3D地球を読み込み中...

次回通過

高度履歴

Altitude vs Time

uPlot chart will show altitude changes over time

軌道要素

1 27508U 02040A 25278.07667808 -.00000009 00000-0 00000+0 0 9993
2 27508 6.6286 71.4467 0004112 37.8641 339.8414 0.98292304 84144
Epoch: Oct 5, 2025 • Age: 9 hours

現在のステータス

高度 36357.1 km
速度 3.05 km/s
衛星直下点 3.10°N, 45.01°E
打ち上げ日 Aug 28, 2002
運用期間 23.1 years
タイプ other

技術仕様

分類 Payload
質量 2700.00 kg
乾燥質量 1550.00 kg
総質量 2700.00 kg
長さ 2.80 m
直径 2.10 m
スパン 19.00 m
形状 Box + 2 Pan
製造者 ALEN
バスタイプ Italsat 3000
フェーズステータス Renamed
所有者/国 EUTSA/F

大規模コンステレーション

Loading constellations...